Track STARLINK-1678 now! 10-day predictions STARLINK-1678 is classified as:
1 46538U 20070G 24325.88575790 .00002255 00000-0 17020-3 0 9997 2 46538 53.0535 143.6044 0000937 71.9624 288.1467 15.06399701227793